33P/Daniel (2024)

Japanese version
Home page
Updated on February 10, 2025

---------------------------------------------------------------------

* Profile

* Pictures

* Orbital Elements

Epoch 2024 Oct. 17.0 TT = JDT 2460600.5
T 2024 Nov. 11.01071 TT                                 Rudenko
q   2.2425946            (2000.0)            P               Q
n   0.11891531     Peri.   20.29257     +0.08346868     -0.93401705
a   4.0955371      Node    66.28307     +0.85393846     -0.11261699
e   0.4524297      Incl.   22.29536     +0.51363615     +0.33901263
P   8.29
From 471 observations 1999 Nov. 13-2024 Oct. 8, mean residual 0".9.
     Nongravitational parameters A1 = +0.82, A2 = +0.0490.

* Magnitudes Graph

        m1 = 12.0 + 5 log d + 15.0 log r

---------------------------------------------------------------------

The orbital elements are published on M.P.E.C. 2024-T253.
The magnitudes graphs are made with Comet for Windows.

---------------------------------------------------------------------

Copyright(C) Seiichi Yoshida (comet@aerith.net). All rights reserved.